Location: Finney State Fishing Lake and Wildlife Area
(38.1834°N, 100.3310°W)
Time: 15:14:01
(UTC+00:00)

Cosmos 371 Rocket - Pass Details

Date: 17 October 2021
Orbit: 684 x 699 km, 74.0° (Epoch: 04 December)

Event Time Altitude Azimuth Distance (km) Brightness Sun altitude
Rises 12:14:52 0° 339° (NNW) 3,089 6.4 -8.1°
Reaches altitude 10° 12:17:12 10° 338° (NNW) 2,167 5.6 -7.7°
Maximum altitude 12:22:04 74° 254° (WSW) 728 3.3 -6.7°
Drops below altitude 10° 12:26:54 10° 170° (S) 2,147 6.1 -5.8°
Sets 12:29:12 0° 168° (SSE) 3,058 6.9 -5.3°
